Location: Bremen
(53.0793°N, 8.8017°E)
Time: 21:34:29
(UTC+02:00)

Envisat - Pass Details

Date: 05 March 2024
Orbit: 762 x 764 km, 98.3° (Epoch: 13 April)

Event Time Altitude Azimuth Distance (km) Brightness Sun altitude
Rises 05:27:48 0° 8° (N) 3,244 6.5 -14.9°
Reaches altitude 10° 05:30:26 10° 356° (N) 2,313 5.6 -14.5°
Maximum altitude 05:34:31 25° 302° (WNW) 1,511 4.1 -13.9°
Enters shadow 05:36:28 20° 269° (W) 1,723 4.2 -13.6°
